Time,TemperatureF,DewpointF,PressureIn,WindDirection,WindDirectionDegrees,WindSpeedMPH,WindSpeedGustMPH,Humidity,HourlyPrecipIn,Conditions,Clouds,dailyrainin,SoftwareType,DateUTC
2013-02-21 00:00:00,26.0,12.8,30.06,West,281,6.0,15.0,57,0.00,,,0.00,Wunderground v.1.15,2013-02-21 05:00:00,
2013-02-21 00:02:00,26.0,12.8,30.06,WNW,293,7.0,15.0,57,0.00,,,0.00,Wunderground v.1.15,2013-02-21 05:02:00,
2013-02-21 00:04:00,26.0,12.8,30.06,NW,306,6.0,15.0,57,0.00,,,0.00,Wunderground v.1.15,2013-02-21 05:04:00,
2013-02-21 00:08:00,26.0,12.8,30.06,WNW,294,7.0,15.0,57,0.00,,,0.00,Wunderground v.1.15,2013-02-21 05:08:00,
2013-02-21 00:14:00,25.9,12.7,30.05,WNW,302,7.0,9.0,57,0.00,,,0.00,Wunderground v.1.15,2013-02-21 05:14:00,
2013-02-21 00:20:00,25.8,12.2,30.05,WNW,295,9.0,15.0,56,0.00,,,0.00,Wunderground v.1.15,2013-02-21 05:20:00,
2013-02-21 00:26:00,25.8,12.2,30.06,WNW,287,8.0,15.0,56,0.00,,,0.00,Wunderground v.1.15,2013-02-21 05:26:00,
2013-02-21 00:32:00,25.8,12.6,30.06,NW,308,7.0,15.0,57,0.00,,,0.00,Wunderground v.1.15,2013-02-21 05:32:00,
2013-02-21 00:38:00,25.7,12.6,30.06,NW,317,6.0,15.0,57,0.00,,,0.00,Wunderground v.1.15,2013-02-21 05:38:00,
2013-02-21 00:44:00,25.6,12.9,30.06,West,260,5.0,15.0,58,0.00,,,0.00,Wunderground v.1.15,2013-02-21 05:44:00,
2013-02-21 00:50:00,25.4,12.7,30.06,NW,319,5.0,15.0,58,0.00,,,0.00,Wunderground v.1.15,2013-02-21 05:50:00,
2013-02-21 00:56:00,25.3,12.6,30.07,WNW,282,5.0,15.0,58,0.00,,,0.00,Wunderground v.1.15,2013-02-21 05:56:00,
2013-02-21 01:02:00,25.3,13.0,30.06,West,265,5.0,15.0,59,0.00,,,0.00,Wunderground v.1.15,2013-02-21 06:02:00,
2013-02-21 01:08:00,25.1,12.8,30.07,West,280,6.0,15.0,59,0.00,,,0.00,Wunderground v.1.15,2013-02-21 06:08:00,
2013-02-21 01:14:00,25.1,12.8,30.06,NNW,333,5.0,15.0,59,0.00,,,0.00,Wunderground v.1.15,2013-02-21 06:14:00,
2013-02-21 01:20:00,25.0,12.7,30.06,NW,309,3.0,15.0,59,0.00,,,0.00,Wunderground v.1.15,2013-02-21 06:20:00,
2013-02-21 01:26:00,24.9,13.0,30.06,WNW,294,5.0,15.0,60,0.00,,,0.00,Wunderground v.1.15,2013-02-21 06:26:00,
2013-02-21 01:32:00,24.9,12.6,30.06,WNW,297,6.0,15.0,59,0.00,,,0.00,Wunderground v.1.15,2013-02-21 06:32:00,
2013-02-21 01:38:00,24.9,12.6,30.06,NW,307,6.0,15.0,59,0.00,,,0.00,Wunderground v.1.15,2013-02-21 06:38:00,
2013-02-21 01:44:00,24.8,12.9,30.06,NW,317,5.0,15.0,60,0.00,,,0.00,Wunderground v.1.15,2013-02-21 06:44:00,
2013-02-21 01:50:00,24.7,12.8,30.06,WNW,298,4.0,15.0,60,0.00,,,0.00,Wunderground v.1.15,2013-02-21 06:50:00,
2013-02-21 01:56:00,24.6,12.7,30.06,WSW,248,4.0,15.0,60,0.00,,,0.00,Wunderground v.1.15,2013-02-21 06:56:00,
2013-02-21 02:02:00,24.6,12.7,30.06,WNW,299,5.0,6.0,60,0.00,,,0.00,Wunderground v.1.15,2013-02-21 07:02:00,
2013-02-21 02:08:00,24.6,12.7,30.05,WNW,292,5.0,6.0,60,0.00,,,0.00,Wunderground v.1.15,2013-02-21 07:08:00,
2013-02-21 02:14:00,24.6,12.7,30.05,WSW,252,5.0,7.0,60,0.00,,,0.00,Wunderground v.1.15,2013-02-21 07:14:00,
2013-02-21 02:20:00,24.6,12.7,30.06,WNW,303,4.0,7.0,60,0.00,,,0.00,Wunderground v.1.15,2013-02-21 07:20:00,
2013-02-21 02:26:00,24.5,13.0,30.06,NW,304,3.0,8.0,61,0.00,,,0.00,Wunderground v.1.15,2013-02-21 07:26:00,
2013-02-21 02:32:00,24.5,13.0,30.06,NW,318,4.0,4.0,61,0.00,,,0.00,Wunderground v.1.15,2013-02-21 07:32:00,
2013-02-21 02:38:00,24.4,12.9,30.06,WNW,301,4.0,8.0,61,0.00,,,0.00,Wunderground v.1.15,2013-02-21 07:38:00,
2013-02-21 02:44:00,24.4,13.2,30.05,NW,311,4.0,6.0,62,0.00,,,0.00,Wunderground v.1.15,2013-02-21 07:44:00,
2013-02-21 02:50:00,24.3,13.1,30.05,NW,308,3.0,6.0,62,0.00,,,0.00,Wunderground v.1.15,2013-02-21 07:50:00,
2013-02-21 02:56:00,24.3,13.1,30.05,WNW,282,4.0,7.0,62,0.00,,,0.00,Wunderground v.1.15,2013-02-21 07:56:00,
2013-02-21 03:02:00,24.3,13.1,30.05,NW,310,4.0,4.0,62,0.00,,,0.00,Wunderground v.1.15,2013-02-21 08:02:00,
2013-02-21 03:08:00,24.3,13.1,30.05,WNW,289,5.0,9.0,62,0.00,,,0.00,Wunderground v.1.15,2013-02-21 08:08:00,
2013-02-21 03:14:00,24.3,13.1,30.05,WNW,302,5.0,11.0,62,0.00,,,0.00,Wunderground v.1.15,2013-02-21 08:14:00,
2013-02-21 03:20:00,24.2,13.0,30.05,NW,316,3.0,11.0,62,0.00,,,0.00,Wunderground v.1.15,2013-02-21 08:20:00,
2013-02-21 03:26:00,24.2,13.4,30.05,NW,317,4.0,11.0,63,0.00,,,0.00,Wunderground v.1.15,2013-02-21 08:26:00,
2013-02-21 03:32:00,24.2,13.4,30.04,WNW,291,5.0,5.0,63,0.00,,,0.00,Wunderground v.1.15,2013-02-21 08:32:00,
2013-02-21 03:38:00,24.2,13.4,30.04,WSW,250,4.0,11.0,63,0.00,,,0.00,Wunderground v.1.15,2013-02-21 08:38:00,
2013-02-21 03:44:00,24.2,13.4,30.04,West,280,4.0,11.0,63,0.00,,,0.00,Wunderground v.1.15,2013-02-21 08:44:00,
2013-02-21 03:50:00,24.2,13.4,30.05,West,279,4.0,11.0,63,0.00,,,0.00,Wunderground v.1.15,2013-02-21 08:50:00,
2013-02-21 03:56:00,24.2,13.4,30.05,WNW,303,5.0,11.0,63,0.00,,,0.00,Wunderground v.1.15,2013-02-21 08:56:00,
2013-02-21 04:02:00,24.2,13.8,30.05,WNW,292,5.0,5.0,64,0.00,,,0.00,Wunderground v.1.15,2013-02-21 09:02:00,
2013-02-21 04:08:00,24.2,13.8,30.05,WNW,299,6.0,11.0,64,0.00,,,0.00,Wunderground v.1.15,2013-02-21 09:08:00,
2013-02-21 04:14:00,24.3,13.9,30.05,West,277,5.0,11.0,64,0.00,,,0.00,Wunderground v.1.15,2013-02-21 09:14:00,
2013-02-21 04:20:00,24.3,13.9,30.05,WNW,300,4.0,11.0,64,0.00,,,0.00,Wunderground v.1.15,2013-02-21 09:20:00,
2013-02-21 04:26:00,24.3,13.9,30.05,WNW,285,4.0,11.0,64,0.00,,,0.00,Wunderground v.1.15,2013-02-21 09:26:00,
2013-02-21 04:32:00,24.3,14.2,30.06,WNW,288,4.0,11.0,65,0.00,,,0.00,Wunderground v.1.15,2013-02-21 09:32:00,
2013-02-21 04:38:00,24.3,13.9,30.06,NW,304,4.0,11.0,64,0.00,,,0.00,Wunderground v.1.15,2013-02-21 09:38:00,
2013-02-21 04:44:00,24.4,14.0,30.06,NNW,342,5.0,11.0,64,0.00,,,0.00,Wunderground v.1.15,2013-02-21 09:44:00,
2013-02-21 04:50:00,24.4,14.3,30.05,West,262,5.0,11.0,65,0.00,,,0.00,Wunderground v.1.15,2013-02-21 09:50:00,
2013-02-21 04:56:00,24.5,14.4,30.06,WSW,255,5.0,11.0,65,0.00,,,0.00,Wunderground v.1.15,2013-02-21 09:56:00,
2013-02-21 05:02:00,24.6,14.1,30.06,NW,309,5.0,11.0,64,0.00,,,0.00,Wunderground v.1.15,2013-02-21 10:02:00,
2013-02-21 05:08:00,24.7,14.2,30.06,WNW,295,5.0,11.0,64,0.00,,,0.00,Wunderground v.1.15,2013-02-21 10:08:00,
2013-02-21 05:14:00,24.8,14.3,30.07,West,279,5.0,11.0,64,0.00,,,0.00,Wunderground v.1.15,2013-02-21 10:14:00,
2013-02-21 05:20:00,24.9,14.4,30.06,NW,304,5.0,11.0,64,0.00,,,0.00,Wunderground v.1.15,2013-02-21 10:20:00,
2013-02-21 05:26:00,24.9,14.4,30.06,NW,311,6.0,11.0,64,0.00,,,0.00,Wunderground v.1.15,2013-02-21 10:26:00,
2013-02-21 05:32:00,24.9,14.4,30.06,West,275,5.0,11.0,64,0.00,,,0.00,Wunderground v.1.15,2013-02-21 10:32:00,
2013-02-21 05:38:00,24.9,14.4,30.06,NW,312,5.0,11.0,64,0.00,,,0.00,Wunderground v.1.15,2013-02-21 10:38:00,
2013-02-21 05:44:00,24.9,14.4,30.06,NW,313,5.0,11.0,64,0.00,,,0.00,Wunderground v.1.15,2013-02-21 10:44:00,
2013-02-21 05:50:00,25.0,14.5,30.07,NW,314,6.0,11.0,64,0.00,,,0.00,Wunderground v.1.15,2013-02-21 10:50:00,
2013-02-21 05:56:00,25.2,14.7,30.07,WNW,293,6.0,11.0,64,0.00,,,0.00,Wunderground v.1.15,2013-02-21 10:56:00,
2013-02-21 06:02:00,25.4,14.5,30.07,NW,305,6.0,6.0,63,0.00,,,0.00,Wunderground v.1.15,2013-02-21 11:02:00,
2013-02-21 06:08:00,25.6,14.7,30.07,West,265,6.0,11.0,63,0.00,,,0.00,Wunderground v.1.15,2013-02-21 11:08:00,
2013-02-21 06:14:00,25.8,14.9,30.07,NW,309,6.0,12.0,63,0.00,,,0.00,Wunderground v.1.15,2013-02-21 11:14:00,
2013-02-21 06:20:00,25.9,14.7,30.07,WNW,283,7.0,12.0,62,0.00,,,0.00,Wunderground v.1.15,2013-02-21 11:20:00,
2013-02-21 06:26:00,26.0,14.8,30.07,WNW,300,7.0,11.0,62,0.00,,,0.00,Wunderground v.1.15,2013-02-21 11:26:00,
2013-02-21 06:32:00,26.0,14.8,30.07,WNW,288,6.0,11.0,62,0.00,,,0.00,Wunderground v.1.15,2013-02-21 11:32:00,
2013-02-21 06:38:00,26.1,14.8,30.07,WNW,296,6.0,11.0,62,0.00,,,0.00,Wunderground v.1.15,2013-02-21 11:38:00,
2013-02-21 06:44:00,26.2,14.9,30.08,NW,319,7.0,11.0,62,0.00,,,0.00,Wunderground v.1.15,2013-02-21 11:44:00,
2013-02-21 06:50:00,26.2,14.9,30.07,WNW,282,7.0,12.0,62,0.00,,,0.00,Wunderground v.1.15,2013-02-21 11:50:00,
2013-02-21 06:56:00,26.3,14.7,30.08,WSW,244,7.0,11.0,61,0.00,,,0.00,Wunderground v.1.15,2013-02-21 11:56:00,
2013-02-21 07:02:00,26.4,14.8,30.08,West,280,7.0,7.0,61,0.00,,,0.00,Wunderground v.1.15,2013-02-21 12:02:00,
2013-02-21 07:08:00,26.5,14.9,30.08,NW,315,7.0,12.0,61,0.00,,,0.00,Wunderground v.1.15,2013-02-21 12:08:00,
2013-02-21 07:14:00,26.5,14.9,30.08,West,279,8.0,16.0,61,0.00,,,0.00,Wunderground v.1.15,2013-02-21 12:14:00,
2013-02-21 07:20:00,26.6,14.6,30.09,WNW,291,9.0,16.0,60,0.00,,,0.00,Wunderground v.1.15,2013-02-21 12:20:00,
2013-02-21 07:26:00,26.7,14.7,30.09,WNW,299,9.0,11.0,60,0.00,,,0.00,Wunderground v.1.15,2013-02-21 12:26:00,
2013-02-21 07:32:00,26.8,14.4,30.09,NNW,342,8.0,8.0,59,0.00,,,0.00,Wunderground v.1.15,2013-02-21 12:32:00,
2013-02-21 07:38:00,26.9,14.5,30.09,NNW,329,7.0,11.0,59,0.00,,,0.00,Wunderground v.1.15,2013-02-21 12:38:00,
2013-02-21 07:44:00,27.0,14.6,30.10,NW,310,7.0,11.0,59,0.00,,,0.00,Wunderground v.1.15,2013-02-21 12:44:00,
2013-02-21 07:50:00,27.0,14.6,30.09,WNW,298,5.0,11.0,59,0.00,,,0.00,Wunderground v.1.15,2013-02-21 12:50:00,
2013-02-21 07:56:00,27.1,14.7,30.09,WNW,286,5.0,11.0,59,0.00,,,0.00,Wunderground v.1.15,2013-02-21 12:56:00,
2013-02-21 08:02:00,27.2,14.4,30.09,NNW,338,6.0,6.0,58,0.00,,,0.00,Wunderground v.1.15,2013-02-21 13:02:00,
2013-02-21 08:08:00,27.5,14.2,30.09,WNW,297,6.0,11.0,57,0.00,,,0.00,Wunderground v.1.15,2013-02-21 13:08:00,
2013-02-21 08:14:00,27.7,14.0,30.09,NW,306,7.0,10.0,56,0.00,,,0.00,Wunderground v.1.15,2013-02-21 13:14:00,
2013-02-21 08:20:00,28.3,14.6,30.08,NNW,338,7.0,11.0,56,0.00,,,0.00,Wunderground v.1.15,2013-02-21 13:20:00,
2013-02-21 08:26:00,28.7,13.7,30.08,NW,324,8.0,14.0,53,0.00,,,0.00,Wunderground v.1.15,2013-02-21 13:26:00,
2013-02-21 08:32:00,28.8,13.8,30.08,NW,309,9.0,9.0,53,0.00,,,0.00,Wunderground v.1.15,2013-02-21 13:32:00,
2013-02-21 08:38:00,29.6,14.5,30.08,NW,308,7.0,16.0,53,0.00,,,0.00,Wunderground v.1.15,2013-02-21 13:38:00,
2013-02-21 08:44:00,29.8,13.9,30.08,WNW,295,8.0,13.0,51,0.00,,,0.00,Wunderground v.1.15,2013-02-21 13:44:00,
2013-02-21 08:50:00,30.1,14.1,30.08,WNW,289,9.0,13.0,51,0.00,,,0.00,Wunderground v.1.15,2013-02-21 13:50:00,
2013-02-21 08:56:00,30.6,14.6,30.08,WNW,289,9.0,16.0,51,0.00,,,0.00,Wunderground v.1.15,2013-02-21 13:56:00,
2013-02-21 09:02:00,30.9,14.0,30.08,West,266,9.0,12.0,49,0.00,,,0.00,Wunderground v.1.15,2013-02-21 14:02:00,
2013-02-21 09:08:00,30.9,14.4,30.08,WNW,290,9.0,12.0,50,0.00,,,0.00,Wunderground v.1.15,2013-02-21 14:08:00,
2013-02-21 09:14:00,31.2,14.2,30.08,WNW,288,9.0,11.0,49,0.00,,,0.00,Wunderground v.1.15,2013-02-21 14:14:00,
2013-02-21 09:20:00,31.1,14.1,30.08,West,277,11.0,17.0,49,0.00,,,0.00,Wunderground v.1.15,2013-02-21 14:20:00,
2013-02-21 09:26:00,31.0,14.5,30.08,WNW,296,11.0,14.0,50,0.00,,,0.00,Wunderground v.1.15,2013-02-21 14:26:00,
2013-02-21 09:32:00,31.3,14.8,30.08,West,263,11.0,11.0,50,0.00,,,0.00,Wunderground v.1.15,2013-02-21 14:32:00,
2013-02-21 09:38:00,30.8,14.3,30.08,WNW,282,13.0,13.0,50,0.00,,,0.00,Wunderground v.1.15,2013-02-21 14:38:00,
2013-02-21 09:44:00,30.2,13.8,30.08,NNW,330,13.0,19.0,50,0.00,,,0.00,Wunderground v.1.15,2013-02-21 14:44:00,
2013-02-21 09:50:00,30.6,14.6,30.08,WSW,258,12.0,19.0,51,0.00,,,0.00,Wunderground v.1.15,2013-02-21 14:50:00,
2013-02-21 09:56:00,31.1,14.6,30.08,West,263,12.0,16.0,50,0.00,,,0.00,Wunderground v.1.15,2013-02-21 14:56:00,
2013-02-21 10:02:00,31.5,15.0,30.08,NW,315,12.0,14.0,50,0.00,,,0.00,Wunderground v.1.15,2013-02-21 15:02:00,
2013-02-21 10:08:00,31.8,14.8,30.08,WNW,297,13.0,14.0,49,0.00,,,0.00,Wunderground v.1.15,2013-02-21 15:08:00,
2013-02-21 10:14:00,32.2,15.2,30.07,WNW,283,12.0,19.0,49,0.00,,,0.00,Wunderground v.1.15,2013-02-21 15:14:00,
2013-02-21 10:20:00,32.2,15.2,30.07,NW,316,13.0,19.0,49,0.00,,,0.00,Wunderground v.1.15,2013-02-21 15:20:00,
2013-02-21 10:26:00,32.8,16.2,30.07,NNW,347,12.0,17.0,50,0.00,,,0.00,Wunderground v.1.15,2013-02-21 15:26:00,
2013-02-21 10:32:00,33.3,16.2,30.08,SW,224,10.0,10.0,49,0.00,,,0.00,Wunderground v.1.15,2013-02-21 15:32:00,
2013-02-21 10:38:00,33.7,16.1,30.08,WNW,285,10.0,14.0,48,0.00,,,0.00,Wunderground v.1.15,2013-02-21 15:38:00,
2013-02-21 10:44:00,33.5,15.9,30.08,WNW,290,11.0,17.0,48,0.00,,,0.00,Wunderground v.1.15,2013-02-21 15:44:00,
2013-02-21 10:50:00,34.0,16.3,30.08,WNW,298,10.0,17.0,48,0.00,,,0.00,Wunderground v.1.15,2013-02-21 15:50:00,
2013-02-21 10:56:00,34.0,16.3,30.08,West,265,10.0,12.0,48,0.00,,,0.00,Wunderground v.1.15,2013-02-21 15:56:00,
2013-02-21 11:02:00,34.3,16.1,30.09,WNW,296,10.0,11.0,47,0.00,,,0.00,Wunderground v.1.15,2013-02-21 16:02:00,
2013-02-21 11:08:00,34.3,16.1,30.09,NNW,333,11.0,20.0,47,0.00,,,0.00,Wunderground v.1.15,2013-02-21 16:08:00,
2013-02-21 11:14:00,34.4,16.7,30.09,NNW,329,12.0,12.0,48,0.00,,,0.00,Wunderground v.1.15,2013-02-21 16:14:00,
2013-02-21 11:20:00,34.5,16.3,30.09,WNW,294,11.0,12.0,47,0.00,,,0.00,Wunderground v.1.15,2013-02-21 16:20:00,
2013-02-21 11:26:00,34.9,16.7,30.08,WNW,286,11.0,15.0,47,0.00,,,0.00,Wunderground v.1.15,2013-02-21 16:26:00,
2013-02-21 11:32:00,35.1,16.9,30.07,NW,315,11.0,18.0,47,0.00,,,0.00,Wunderground v.1.15,2013-02-21 16:32:00,
2013-02-21 11:38:00,35.0,16.3,30.08,WNW,300,12.0,23.0,46,0.00,,,0.00,Wunderground v.1.15,2013-02-21 16:38:00,
2013-02-21 11:44:00,35.4,17.1,30.08,NNW,331,11.0,15.0,47,0.00,,,0.00,Wunderground v.1.15,2013-02-21 16:44:00,
2013-02-21 11:50:00,35.3,16.6,30.08,NW,307,12.0,27.0,46,0.00,,,0.00,Wunderground v.1.15,2013-02-21 16:50:00,
2013-02-21 11:56:00,35.2,17.0,30.07,West,279,14.0,17.0,47,0.00,,,0.00,Wunderground v.1.15,2013-02-21 16:56:00,
2013-02-21 12:02:00,35.5,16.7,30.07,WNW,296,13.0,16.0,46,0.00,,,0.00,Wunderground v.1.15,2013-02-21 17:02:00,
2013-02-21 12:08:00,35.9,17.6,30.06,WNW,284,11.0,16.0,47,0.00,,,0.00,Wunderground v.1.15,2013-02-21 17:08:00,
2013-02-21 12:14:00,37.0,18.1,30.06,NW,306,9.0,15.0,46,0.00,,,0.00,Wunderground v.1.15,2013-02-21 17:14:00,
2013-02-21 12:20:00,36.9,17.0,30.06,NW,311,10.0,23.0,44,0.00,,,0.00,Wunderground v.1.15,2013-02-21 17:20:00,
2013-02-21 12:26:00,36.5,17.1,30.06,WNW,284,11.0,18.0,45,0.00,,,0.00,Wunderground v.1.15,2013-02-21 17:26:00,
2013-02-21 12:32:00,36.7,18.3,30.05,WNW,287,10.0,17.0,47,0.00,,,0.00,Wunderground v.1.15,2013-02-21 17:32:00,
2013-02-21 12:38:00,37.1,17.7,30.06,WNW,282,10.0,19.0,45,0.00,,,0.00,Wunderground v.1.15,2013-02-21 17:38:00,
2013-02-21 12:44:00,36.7,16.8,30.05,West,267,11.0,11.0,44,0.00,,,0.00,Wunderground v.1.15,2013-02-21 17:44:00,
2013-02-21 12:50:00,37.1,17.2,30.06,WNW,303,10.0,15.0,44,0.00,,,0.00,Wunderground v.1.15,2013-02-21 17:50:00,
2013-02-21 12:56:00,37.3,17.4,30.05,NW,325,9.0,14.0,44,0.00,,,0.00,Wunderground v.1.15,2013-02-21 17:56:00,
2013-02-21 13:02:00,37.3,16.8,30.05,North,355,9.0,9.0,43,0.00,,,0.00,Wunderground v.1.15,2013-02-21 18:02:00,
2013-02-21 13:08:00,37.1,17.2,30.05,NW,320,9.0,17.0,44,0.00,,,0.00,Wunderground v.1.15,2013-02-21 18:08:00,
2013-02-21 13:14:00,37.6,17.6,30.05,North,360,9.0,11.0,44,0.00,,,0.00,Wunderground v.1.15,2013-02-21 18:14:00,
2013-02-21 13:20:00,38.1,17.0,30.05,NNE,20,8.0,11.0,42,0.00,,,0.00,Wunderground v.1.15,2013-02-21 18:20:00,
2013-02-21 13:26:00,38.3,17.2,30.05,NW,304,8.0,11.0,42,0.00,,,0.00,Wunderground v.1.15,2013-02-21 18:26:00,
2013-02-21 13:32:00,38.5,17.4,30.05,West,278,9.0,9.0,42,0.00,,,0.00,Wunderground v.1.15,2013-02-21 18:32:00,
2013-02-21 13:38:00,38.8,17.1,30.05,WNW,294,8.0,11.0,41,0.00,,,0.00,Wunderground v.1.15,2013-02-21 18:38:00,
2013-02-21 13:44:00,38.9,16.6,30.05,NW,319,9.0,11.0,40,0.00,,,0.00,Wunderground v.1.15,2013-02-21 18:44:00,
2013-02-21 13:50:00,38.9,17.2,30.05,NNW,328,9.0,11.0,41,0.00,,,0.00,Wunderground v.1.15,2013-02-21 18:50:00,
2013-02-21 13:56:00,38.9,17.2,30.05,NW,315,9.0,14.0,41,0.00,,,0.00,Wunderground v.1.15,2013-02-21 18:56:00,
2013-02-21 14:02:00,38.7,17.0,30.05,NNW,329,10.0,16.0,41,0.00,,,0.00,Wunderground v.1.15,2013-02-21 19:02:00,
2013-02-21 14:08:00,39.1,16.8,30.05,West,265,10.0,16.0,40,0.00,,,0.00,Wunderground v.1.15,2013-02-21 19:08:00,
2013-02-21 14:14:00,38.9,16.6,30.05,NW,318,11.0,13.0,40,0.00,,,0.00,Wunderground v.1.15,2013-02-21 19:14:00,
2013-02-21 14:20:00,38.8,17.1,30.05,WNW,295,11.0,15.0,41,0.00,,,0.00,Wunderground v.1.15,2013-02-21 19:20:00,
2013-02-21 14:26:00,38.6,16.9,30.06,WNW,294,10.0,12.0,41,0.00,,,0.00,Wunderground v.1.15,2013-02-21 19:26:00,
2013-02-21 14:32:00,38.9,17.2,30.06,WNW,299,11.0,11.0,41,0.00,,,0.00,Wunderground v.1.15,2013-02-21 19:32:00,
2013-02-21 14:38:00,38.6,16.9,30.06,WNW,290,11.0,20.0,41,0.00,,,0.00,Wunderground v.1.15,2013-02-21 19:38:00,
2013-02-21 14:44:00,38.7,17.0,30.06,WNW,296,11.0,12.0,41,0.00,,,0.00,Wunderground v.1.15,2013-02-21 19:44:00,
2013-02-21 14:50:00,38.6,16.9,30.06,NW,319,11.0,12.0,41,0.00,,,0.00,Wunderground v.1.15,2013-02-21 19:50:00,
2013-02-21 14:56:00,38.7,17.5,30.07,WNW,296,11.0,12.0,42,0.00,,,0.00,Wunderground v.1.15,2013-02-21 19:56:00,
2013-02-21 15:02:00,38.7,17.5,30.07,WNW,301,10.0,10.0,42,0.00,,,0.00,Wunderground v.1.15,2013-02-21 20:02:00,
2013-02-21 15:08:00,38.7,17.5,30.07,North,349,10.0,13.0,42,0.00,,,0.00,Wunderground v.1.15,2013-02-21 20:08:00,
2013-02-21 15:14:00,38.5,17.9,30.06,NW,310,10.0,11.0,43,0.00,,,0.00,Wunderground v.1.15,2013-02-21 20:14:00,
2013-02-21 15:20:00,38.2,17.1,30.06,WNW,296,11.0,14.0,42,0.00,,,0.00,Wunderground v.1.15,2013-02-21 20:20:00,
2013-02-21 15:26:00,38.0,18.0,30.06,NNW,344,10.0,11.0,44,0.00,,,0.00,Wunderground v.1.15,2013-02-21 20:26:00,
2013-02-21 15:32:00,37.7,17.2,30.07,NNW,342,10.0,14.0,43,0.00,,,0.00,Wunderground v.1.15,2013-02-21 20:32:00,
2013-02-21 15:38:00,37.7,17.7,30.07,NNW,344,10.0,16.0,44,0.00,,,0.00,Wunderground v.1.15,2013-02-21 20:38:00,
2013-02-21 15:44:00,37.6,17.6,30.07,West,278,10.0,11.0,44,0.00,,,0.00,Wunderground v.1.15,2013-02-21 20:44:00,
2013-02-21 15:50:00,37.6,18.2,30.07,WNW,294,10.0,11.0,45,0.00,,,0.00,Wunderground v.1.15,2013-02-21 20:50:00,
2013-02-21 15:56:00,37.4,17.4,30.08,NNW,330,10.0,19.0,44,0.00,,,0.00,Wunderground v.1.15,2013-02-21 20:56:00,
2013-02-21 16:02:00,37.2,17.8,30.08,NW,309,10.0,11.0,45,0.00,,,0.00,Wunderground v.1.15,2013-02-21 21:02:00,
2013-02-21 16:08:00,37.1,17.7,30.08,WNW,289,11.0,15.0,45,0.00,,,0.00,Wunderground v.1.15,2013-02-21 21:08:00,
2013-02-21 16:14:00,36.8,17.4,30.08,WNW,290,13.0,15.0,45,0.00,,,0.00,Wunderground v.1.15,2013-02-21 21:14:00,
2013-02-21 16:20:00,36.9,18.0,30.08,NNW,341,10.0,15.0,46,0.00,,,0.00,Wunderground v.1.15,2013-02-21 21:20:00,
2013-02-21 16:26:00,37.0,18.1,30.08,North,355,8.0,12.0,46,0.00,,,0.00,Wunderground v.1.15,2013-02-21 21:26:00,
2013-02-21 16:32:00,36.9,18.0,30.09,NW,313,11.0,17.0,46,0.00,,,0.00,Wunderground v.1.15,2013-02-21 21:32:00,
2013-02-21 16:38:00,36.6,17.7,30.10,NNW,331,11.0,17.0,46,0.00,,,0.00,Wunderground v.1.15,2013-02-21 21:38:00,
2013-02-21 16:44:00,36.3,18.0,30.10,NW,317,10.0,12.0,47,0.00,,,0.00,Wunderground v.1.15,2013-02-21 21:44:00,
2013-02-21 16:50:00,36.1,17.8,30.11,NW,324,9.0,13.0,47,0.00,,,0.00,Wunderground v.1.15,2013-02-21 21:50:00,
2013-02-21 16:56:00,35.7,17.4,30.11,North,11,8.0,11.0,47,0.00,,,0.00,Wunderground v.1.15,2013-02-21 21:56:00,
2013-02-21 17:02:00,35.4,17.6,30.12,NNW,330,8.0,11.0,48,0.00,,,0.00,Wunderground v.1.15,2013-02-21 22:02:00,
2013-02-21 17:08:00,35.2,17.4,30.13,NW,315,8.0,12.0,48,0.00,,,0.00,Wunderground v.1.15,2013-02-21 22:08:00,
2013-02-21 17:14:00,34.8,17.6,30.13,NW,309,8.0,11.0,49,0.00,,,0.00,Wunderground v.1.15,2013-02-21 22:14:00,
2013-02-21 17:20:00,34.6,17.4,30.14,North,360,6.0,11.0,49,0.00,,,0.00,Wunderground v.1.15,2013-02-21 22:20:00,
2013-02-21 17:26:00,34.4,17.7,30.14,North,5,6.0,11.0,50,0.00,,,0.00,Wunderground v.1.15,2013-02-21 22:26:00,
2013-02-21 17:32:00,34.2,17.5,30.14,North,355,6.0,11.0,50,0.00,,,0.00,Wunderground v.1.15,2013-02-21 22:32:00,
2013-02-21 17:38:00,34.0,17.3,30.15,NNW,341,7.0,14.0,50,0.00,,,0.00,Wunderground v.1.15,2013-02-21 22:38:00,
2013-02-21 17:44:00,33.9,17.7,30.15,NNE,28,8.0,11.0,51,0.00,,,0.00,Wunderground v.1.15,2013-02-21 22:44:00,
2013-02-21 17:50:00,33.7,17.5,30.15,NNW,341,9.0,17.0,51,0.00,,,0.00,Wunderground v.1.15,2013-02-21 22:50:00,
2013-02-21 17:56:00,33.4,17.2,30.14,NNW,328,8.0,11.0,51,0.00,,,0.00,Wunderground v.1.15,2013-02-21 22:56:00,
2013-02-21 18:02:00,33.1,16.9,30.14,North,360,7.0,7.0,51,0.00,,,0.00,Wunderground v.1.15,2013-02-21 23:02:00,
2013-02-21 18:08:00,32.9,17.2,30.15,NNW,338,6.0,11.0,52,0.00,,,0.00,Wunderground v.1.15,2013-02-21 23:08:00,
2013-02-21 18:52:00,31.6,16.8,30.18,NW,318,6.0,11.0,54,0.00,,,0.00,Wunderground v.1.15,2013-02-21 23:52:00,
2013-02-21 18:58:00,31.5,16.7,30.19,NW,305,7.0,11.0,54,0.00,,,0.00,Wunderground v.1.15,2013-02-21 23:58:00,
2013-02-21 19:04:00,31.4,17.5,30.21,NW,323,6.0,6.0,56,0.00,,,0.00,Wunderground v.1.15,2013-02-22 00:04:00,
2013-02-21 19:10:00,31.2,17.3,30.22,NNW,332,5.0,11.0,56,0.00,,,0.00,Wunderground v.1.15,2013-02-22 00:10:00,
2013-02-21 19:16:00,31.1,16.8,30.22,North,5,8.0,8.0,55,0.00,,,0.00,Wunderground v.1.15,2013-02-22 00:16:00,
2013-02-21 19:22:00,30.9,16.6,30.23,NNW,343,6.0,7.0,55,0.00,,,0.00,Wunderground v.1.15,2013-02-22 00:22:00,
2013-02-21 19:28:00,30.7,16.8,30.23,WNW,298,5.0,8.0,56,0.00,,,0.00,Wunderground v.1.15,2013-02-22 00:28:00,
2013-02-21 19:34:00,30.6,16.7,30.24,North,355,6.0,6.0,56,0.00,,,0.00,Wunderground v.1.15,2013-02-22 00:34:00,
2013-02-21 19:40:00,30.5,17.1,30.25,NW,319,5.0,10.0,57,0.00,,,0.00,Wunderground v.1.15,2013-02-22 00:40:00,
2013-02-21 19:46:00,30.4,17.0,30.25,West,273,6.0,7.0,57,0.00,,,0.00,Wunderground v.1.15,2013-02-22 00:46:00,
2013-02-21 19:52:00,30.3,16.9,30.25,NNW,334,6.0,6.0,57,0.00,,,0.00,Wunderground v.1.15,2013-02-22 00:52:00,
2013-02-21 19:58:00,30.2,16.8,30.26,North,355,7.0,9.0,57,0.00,,,0.00,Wunderground v.1.15,2013-02-22 00:58:00,
2013-02-21 20:04:00,30.1,16.3,30.27,WNW,286,8.0,8.0,56,0.00,,,0.00,Wunderground v.1.15,2013-02-22 01:04:00,
2013-02-21 20:10:00,30.0,16.6,30.28,NNW,333,8.0,17.0,57,0.00,,,0.00,Wunderground v.1.15,2013-02-22 01:10:00,
2013-02-21 20:16:00,29.8,16.4,30.28,North,355,7.0,17.0,57,0.00,,,0.00,Wunderground v.1.15,2013-02-22 01:16:00,
2013-02-21 20:22:00,29.7,16.3,30.29,North,5,7.0,17.0,57,0.00,,,0.00,Wunderground v.1.15,2013-02-22 01:22:00,
2013-02-21 20:28:00,29.5,16.1,30.29,WNW,286,7.0,17.0,57,0.00,,,0.00,Wunderground v.1.15,2013-02-22 01:28:00,
2013-02-21 20:34:00,29.3,16.3,30.29,NNW,345,8.0,17.0,58,0.00,,,0.00,Wunderground v.1.15,2013-02-22 01:34:00,
2013-02-21 20:40:00,29.2,16.2,30.30,West,281,9.0,17.0,58,0.00,,,0.00,Wunderground v.1.15,2013-02-22 01:40:00,
2013-02-21 20:46:00,29.1,16.1,30.29,NNW,333,8.0,17.0,58,0.00,,,0.00,Wunderground v.1.15,2013-02-22 01:46:00,
2013-02-21 20:52:00,29.0,16.4,30.30,NNW,348,7.0,7.0,59,0.00,,,0.00,Wunderground v.1.15,2013-02-22 01:52:00,
2013-02-21 20:58:00,28.8,16.3,30.29,NNW,338,7.0,17.0,59,0.00,,,0.00,Wunderground v.1.15,2013-02-22 01:58:00,
2013-02-21 21:04:00,28.5,16.0,30.30,NNE,25,8.0,10.0,59,0.00,,,0.00,Wunderground v.1.15,2013-02-22 02:04:00,
2013-02-21 21:10:00,28.4,16.3,30.30,NNW,336,8.0,17.0,60,0.00,,,0.00,Wunderground v.1.15,2013-02-22 02:10:00,
2013-02-21 21:16:00,28.2,16.1,30.30,NNW,338,8.0,17.0,60,0.00,,,0.00,Wunderground v.1.15,2013-02-22 02:16:00,
2013-02-21 21:22:00,28.1,16.0,30.30,North,355,8.0,17.0,60,0.00,,,0.00,Wunderground v.1.15,2013-02-22 02:22:00,
2013-02-21 21:28:00,28.0,16.3,30.30,WNW,298,8.0,17.0,61,0.00,,,0.00,Wunderground v.1.15,2013-02-22 02:28:00,
2013-02-21 21:34:00,27.9,16.2,30.30,NE,36,6.0,17.0,61,0.00,,,0.00,Wunderground v.1.15,2013-02-22 02:34:00,
2013-02-21 21:40:00,27.7,16.0,30.30,NNE,27,7.0,17.0,61,0.00,,,0.00,Wunderground v.1.15,2013-02-22 02:40:00,
2013-02-21 21:46:00,27.6,16.3,30.30,NNE,15,8.0,17.0,62,0.00,,,0.00,Wunderground v.1.15,2013-02-22 02:46:00,
2013-02-21 21:52:00,27.5,16.2,30.31,NNE,22,7.0,17.0,62,0.00,,,0.00,Wunderground v.1.15,2013-02-22 02:52:00,
2013-02-21 21:58:00,27.4,16.1,30.31,NNW,338,7.0,17.0,62,0.00,,,0.00,Wunderground v.1.15,2013-02-22 02:58:00,
2013-02-21 22:04:00,27.3,16.4,30.30,NNW,346,7.0,17.0,63,0.00,,,0.00,Wunderground v.1.15,2013-02-22 03:04:00,
2013-02-21 22:10:00,27.1,16.2,30.29,North,9,7.0,17.0,63,0.00,,,0.00,Wunderground v.1.15,2013-02-22 03:10:00,
2013-02-21 22:16:00,27.1,16.2,30.30,NNW,342,7.0,17.0,63,0.00,,,0.00,Wunderground v.1.15,2013-02-22 03:16:00,
2013-02-21 22:22:00,27.0,16.4,30.30,NNE,13,9.0,9.0,64,0.00,,,0.00,Wunderground v.1.15,2013-02-22 03:22:00,
2013-02-21 22:28:00,27.0,16.4,30.29,North,5,8.0,17.0,64,0.00,,,0.00,Wunderground v.1.15,2013-02-22 03:28:00,
2013-02-21 22:34:00,27.0,16.4,30.30,North,5,8.0,17.0,64,0.00,,,0.00,Wunderground v.1.15,2013-02-22 03:34:00,
2013-02-21 22:40:00,27.0,16.8,30.30,North,355,8.0,17.0,65,0.00,,,0.00,Wunderground v.1.15,2013-02-22 03:40:00,
2013-02-21 22:46:00,26.9,16.7,30.30,North,360,7.0,17.0,65,0.00,,,0.00,Wunderground v.1.15,2013-02-22 03:46:00,
2013-02-21 22:52:00,26.8,17.0,30.31,NNW,342,6.0,17.0,66,0.00,,,0.00,Wunderground v.1.15,2013-02-22 03:52:00,
2013-02-21 22:58:00,26.8,17.0,30.30,North,355,7.0,17.0,66,0.00,,,0.00,Wunderground v.1.15,2013-02-22 03:58:00,
2013-02-21 23:04:00,26.8,17.0,30.31,NNW,348,8.0,17.0,66,0.00,,,0.00,Wunderground v.1.15,2013-02-22 04:04:00,
2013-02-21 23:10:00,26.9,17.0,30.31,NW,323,7.0,17.0,66,0.00,,,0.00,Wunderground v.1.15,2013-02-22 04:10:00,
2013-02-21 23:16:00,26.8,17.0,30.32,North,350,6.0,17.0,66,0.00,,,0.00,Wunderground v.1.15,2013-02-22 04:16:00,
2013-02-21 23:22:00,26.8,17.0,30.32,NNW,336,5.0,17.0,66,0.00,,,0.00,Wunderground v.1.15,2013-02-22 04:22:00,
2013-02-21 23:28:00,26.7,17.2,30.32,North,5,4.0,17.0,67,0.00,,,0.00,Wunderground v.1.15,2013-02-22 04:28:00,
2013-02-21 23:34:00,26.7,17.2,30.32,NNE,23,5.0,17.0,67,0.00,,,0.00,Wunderground v.1.15,2013-02-22 04:34:00,
2013-02-21 23:40:00,26.7,17.6,30.32,North,355,6.0,17.0,68,0.00,,,0.00,Wunderground v.1.15,2013-02-22 04:40:00,
2013-02-21 23:46:00,26.7,17.6,30.32,NNE,29,5.0,17.0,68,0.00,,,0.00,Wunderground v.1.15,2013-02-22 04:46:00,
2013-02-21 23:52:00,26.8,17.6,30.32,NE,38,5.0,17.0,68,0.00,,,0.00,Wunderground v.1.15,2013-02-22 04:52:00,
2013-02-21 23:58:00,27.0,17.8,30.32,North,5,5.0,17.0,68,0.00,,,0.00,Wunderground v.1.15,2013-02-22 04:58:00,